[[{"header":{"parameterUnit":"m.s-1","parameterCategory":2,"la1":30.2991,"la2":30.254,"lo1":-89.0895,"lo2":-89.0444,"dy":0.0017,"dx":0.0017,"nx":28,"ny":28,"refTime":"2025-07-12T09:00:00:Z","depth":"0","parameterNumber":2,"parameterNumberName":"U-component_of_CURRENTS"},"data":[0,0,0,0,0,0,0,0,0,0,0,0,0,0,0,0,0,0,0,0,0,0,0,0,0,0,0,0,0,0,0,0,0,0,0,0,0,0,0,0,0,0,0,0,0,0,0,0,0,0,0,0,0,0,0,0,0,0,0.3892,0.3894,0,0.4001,0.4003,0.4004,0.394,0.3937,0.3934,0.3931,0.4046,0.4051,0.4057,0,0,0,0,0,0,0,0,0,0,0,0,0,0.3766,0.3768,0.3892,0.3894,0.3895,0.4001,0.4003,0.4004,0.394,0.3937,0.3933,0.393,0.4044,0.4051,0.4058,0,0,0,0,0,0,0,0,0,0,0,0,0,0.3841,0.3769,0.3892,0.3877,0.3877,0.4001,0.4003,0.4004,0.3941,0.3937,0.3932,0.3928,0.4042,0.405,0.4059,0.4201,0,0,0.4085,0.4089,0,0,0,0,0,0,0,0,0.3837,0.3845,0.3878,0.3879,0.3879,0.3954,0.4,0.4071,0.3942,0.3915,0.3931,0.3926,0.402,0.403,0.4058,0.4206,0.4211,0.4086,0.4091,0.4095,0.4097,0,0,0,0,0,0,0,0.3831,0.3841,0.3934,0.388,0.3881,0.3913,0.3917,0.4014,0.399,0.3917,0.3913,0.3929,0.4019,0.405,0.406,0.4213,0.4086,0.4093,0.4099,0.4102,0.4453,0.4457,0,0,0,0,0,0,0.382,0.3836,0.393,0.3937,0.3848,0.3918,0.3923,0.3933,0.3989,0.3993,0.3933,0.3926,0.4037,0.405,0.4064,0.4268,0.4095,0.4103,0.4108,0.4449,0.4454,0.4458,0,0,0,0,0,0,0.3816,0.3827,0.3926,0.389,0.3905,0.3924,0.3937,0.3937,0.3952,0.4001,0.4004,0.3944,0.4034,0.4052,0.4166,0.427,0.4107,0.4115,0.4444,0.4451,0.4456,0.4656,0,0,0,0,0,0,0.3812,0.3825,0.3854,0.389,0.3907,0.4033,0.3941,0.3943,0.397,0.3962,0.4014,0.4019,0.4032,0.4153,0.4175,0.4279,0.4122,0.4439,0.4447,0.4454,0.4644,0.4668,0.4688,0,0,0,0,0,0.3807,0.3911,0.3854,0.3867,0.3937,0.4038,0.4053,0.4048,0.3975,0.4032,0.4047,0.4017,0.4215,0.4166,0.4189,0.4298,0.4435,0.4445,0.4454,0.4634,0.4663,0.4688,0,0,0,0,0,0,0.3886,0.3914,0.3853,0.3956,0.3987,0.4028,0.4106,0.4059,0.4114,0.4103,0.4092,0.4107,0.4242,0.4243,0.4186,0.4416,0.4314,0.4328,0.4443,0.447,0.4492,0.4486,0.4129,0,0,0,0,0,0.3907,0.3974,0.3983,0.406,0.4087,0.4076,0.4117,0.4102,0.4145,0.416,0.4179,0.4219,0.431,0.436,0.4432,0.458,0.4556,0.4655,0.4677,0.4696,0.4706,0.4771,0.48,0.4489,0.4489,0.4488,0,0,0.3948,0.3981,0.401,0.4079,0.4103,0.4192,0.4093,0.4179,0.4251,0.4175,0.4294,0.4308,0.4363,0.4519,0.4579,0.453,0.4774,0.4708,0.4724,0.4723,0.4783,0.4813,0.484,0.4495,0.4494,0.4493,0,0,0.4087,0.4099,0.4189,0.4241,0.4294,0.4308,0.4324,0.4356,0.4377,0.4495,0.4449,0.4522,0.465,0.4709,0.4757,0.4951,0.4887,0.4957,0.5084,0.5148,0.5174,0.5196,0.5208,0.5229,0.4973,0.4973,0.4973,0,0.4107,0.4219,0.4238,0.4346,0.4389,0.4356,0.4443,0.4518,0.4572,0.4587,0.4563,0.47,0.4758,0.4917,0.4991,0.5009,0.4994,0.4982,0.5178,0.5199,0.5219,0.5224,0.5246,0.4984,0.4983,0.4981,0.498,0,0.43,0.4386,0.447,0.456,0.4627,0.4721,0.4777,0.4832,0.4824,0.4842,0.496,0.503,0.5077,0.5138,0.5149,0.531,0.5238,0.5195,0.5108,0.5262,0.5258,0.5277,0.4999,0.4995,0.4992,0.4989,0,0,0.4298,0.4537,0.4554,0.4608,0.4729,0.4794,0.494,0.502,0.5052,0.5152,0.5185,0.5399,0.5337,0.5386,0.5386,0.5476,0.5635,0.5407,0.5405,0.5414,0.5733,0.5487,0.5482,0.5613,0.5618,0.5622,0.5674,0,0.4392,0.4631,0.471,0.4884,0.4989,0.5008,0.5123,0.5197,0.5237,0.5283,0.5364,0.543,0.5467,0.5464,0.5579,0.5587,0.5691,0.5621,0.5584,0.5583,0.5343,0.55,0.5135,0.5134,0.5692,0.5695,0.5697,0,0.4509,0.4655,0.4851,0.4998,0.5031,0.5114,0.5186,0.5289,0.5372,0.5394,0.5465,0.5472,0.5624,0.5606,0.5783,0.5721,0.5766,0.5792,0.5793,0.5503,0.5372,0.5071,0.5146,0.5009,0.5724,0.5722,0.572,0,0.4493,0.4724,0.487,0.4937,0.5119,0.5151,0.5207,0.5292,0.5347,0.5428,0.5443,0.5576,0.563,0.5732,0.5819,0.5796,0.5959,0.5916,0.5753,0.5733,0.5384,0.5325,0.5312,0.6074,0.6074,0.6074,0.6074,0,0.4566,0.4674,0.4866,0.4956,0.5047,0.5149,0.5202,0.5272,0.5335,0.5385,0.5478,0.5534,0.5672,0.5761,0.5827,0.5833,0.5979,0.5798,0.5749,0.5439,0.5387,0.5213,0.5192,0.6076,0.6075,0.6075,0.6074,0,0.4552,0.4696,0.4851,0.5025,0.5058,0.5111,0.5189,0.5229,0.5307,0.536,0.5388,0.5533,0.5618,0.5717,0.5854,0.5819,0.566,0.5832,0.5428,0.5329,0.4947,0.4948,0.4757,0.4645,0.5611,0.5605,0.56,0,0.4585,0.4679,0.4862,0.4918,0.4989,0.5066,0.5102,0.5195,0.523,0.5357,0.5377,0.548,0.5488,0.556,0.5502,0.5491,0.5477,0.5178,0.5084,0.4892,0.4864,0.478,0.4699,0.4715,0.4704,0.4694,0.4687,0,0.4625,0.4672,0.4802,0.4897,0.4952,0.4995,0.5051,0.5067,0.516,0.5196,0.5226,0.5225,0.5232,0.501,0.4984,0.496,0.4847,0.4976,0.4908,0.4269,0.4051,0.3926,0.4706,0.4603,0.4611,0.4617,0.4622,0.4625,0.4615,0.4671,0.4802,0.4847,0.4907,0.4876,0.4807,0.4861,0.4847,0.4766,0.4945,0.4776,0.4624,0.4468,0.4441,0.4082,0.4263,0.3909,0.3964,0.3927,0.3694,0.4257,0.4011,0.4015,0.4019,0.4023,0.4026,0,0.458,0.4643,0.473,0.4761,0.4724,0.4768,0.4726,0.4581,0.4451,0.4423,0.4339,0.401,0.3735,0.3629,0.3294,0.3115,0.3054,0.3034,0.2874,0.2881,0.3465,0.3297,0.2722,0.2722,0.2722,0.2723,0.2723,0.2723,0.4579,0.4621,0.4631,0.4539,0.4526,0.4322,0.4216,0.4032,0.3919,0.3561,0.3285,0.3208,0.3109,0.2825,0.2525,0.2461,0.2392,0.2157,0.2373,0.28,0.2887,0.2971,0.2809,0.2142,0.2142,0.1585,0.1581,0.1577]},{"header":{"parameterUnit":"m.s-1","parameterCategory":2,"la1":30.2991,"la2":30.254,"lo1":-89.0895,"lo2":-89.0444,"dy":0.0017,"dx":0.0017,"nx":28,"ny":28,"refTime":"2025-07-12T09:00:00:Z","depth":"0","parameterNumber":3,"parameterNumberName":"V-component_of_CURRENTS"},"data":[0,0,0,0,0,0,0,0,0,0,0,0,0,0,0,0,0,0,0,0,0,0,0,0,0,0,0,0,0,0,0,0,0,0,0,0,0,0,0,0,0,0,0,0,0,0,0,0,0,0,0,0,0,0,0,0,0,0,0.018,0.018,0,0.0151,0.0151,0.015,0.0137,0.0137,0.0137,0.0137,0.0202,0.0204,0.0205,0,0,0,0,0,0,0,0,0,0,0,0,0,0.0226,0.0225,0.0181,0.018,0.018,0.0151,0.0151,0.015,0.0137,0.0137,0.0137,0.0137,0.0201,0.0204,0.0206,0,0,0,0,0,0,0,0,0,0,0,0,0,0.0203,0.0225,0.0181,0.0169,0.0168,0.0151,0.0151,0.015,0.0137,0.0137,0.0137,0.0137,0.0201,0.0203,0.0206,0.0223,0,0,0.0214,0.0215,0,0,0,0,0,0,0,0,0.0204,0.0201,0.0171,0.017,0.0168,0.0147,0.019,0.0179,0.0137,0.0149,0.0137,0.0137,0.0192,0.0195,0.0189,0.0226,0.0229,0.0214,0.0216,0.0217,0.0218,0,0,0,0,0,0,0,0.0206,0.0202,0.017,0.0171,0.0169,0.0165,0.0162,0.0188,0.0174,0.0148,0.0147,0.0143,0.0192,0.0187,0.0191,0.023,0.0214,0.0217,0.0218,0.0219,0.0299,0.03,0,0,0,0,0,0,0.0208,0.0204,0.017,0.0169,0.0186,0.0164,0.0161,0.0154,0.0171,0.0173,0.0143,0.0142,0.0182,0.0188,0.0194,0.0229,0.0217,0.0219,0.0221,0.0299,0.0299,0.03,0,0,0,0,0,0,0.0209,0.0205,0.0172,0.0185,0.0181,0.0164,0.0157,0.0154,0.0151,0.0166,0.0169,0.0142,0.0183,0.019,0.0207,0.0231,0.0221,0.0223,0.0298,0.0299,0.0299,0.0291,0,0,0,0,0,0,0.021,0.0206,0.0206,0.0185,0.018,0.0167,0.0156,0.0153,0.0148,0.0147,0.0167,0.0172,0.0183,0.0203,0.021,0.0234,0.0225,0.0297,0.0298,0.0299,0.029,0.0291,0.0292,0,0,0,0,0,0.0212,0.0212,0.0206,0.0202,0.0179,0.0167,0.0164,0.0152,0.0148,0.0149,0.0153,0.0172,0.0215,0.0205,0.0213,0.0239,0.0297,0.0298,0.0299,0.029,0.0291,0.0292,0,0,0,0,0,0,0.0231,0.021,0.0203,0.0196,0.0184,0.0164,0.0164,0.0155,0.0157,0.0157,0.0171,0.0177,0.0201,0.022,0.0209,0.0265,0.0263,0.0266,0.0254,0.0255,0.0255,0.0315,0.0227,0,0,0,0,0,0.0235,0.0235,0.021,0.0209,0.0201,0.0183,0.0178,0.0167,0.0163,0.0163,0.0174,0.0192,0.0213,0.0231,0.0248,0.028,0.0324,0.0304,0.0305,0.0305,0.0359,0.0456,0.0471,0.0304,0.0304,0.0304,0,0,0.0247,0.0233,0.0235,0.0214,0.0204,0.0206,0.018,0.0172,0.0184,0.0173,0.0195,0.0192,0.0218,0.0244,0.026,0.0265,0.0358,0.0307,0.0307,0.0362,0.0459,0.0476,0.0491,0.0304,0.0304,0.0304,0,0,0.0273,0.0252,0.0263,0.0253,0.0235,0.0222,0.0221,0.02,0.0199,0.0211,0.0205,0.0223,0.0248,0.0274,0.0292,0.0316,0.0351,0.0309,0.0374,0.0464,0.048,0.0495,0.0494,0.0509,0.0318,0.0318,0.0318,0,0.0287,0.0297,0.0265,0.0271,0.0277,0.0234,0.0254,0.0242,0.0232,0.0253,0.0224,0.0284,0.0279,0.035,0.0339,0.0324,0.0353,0.0361,0.0468,0.0484,0.05,0.0497,0.0514,0.0318,0.0318,0.0318,0.0318,0,0.0325,0.0332,0.0336,0.0336,0.0334,0.0339,0.0319,0.0316,0.0306,0.0314,0.0364,0.0356,0.0413,0.0388,0.0367,0.0467,0.0438,0.0448,0.0469,0.0517,0.0508,0.0526,0.0318,0.0318,0.0318,0.0318,0,0,0.0358,0.0365,0.0368,0.0385,0.0371,0.0374,0.039,0.0412,0.0459,0.0441,0.053,0.0518,0.0527,0.055,0.0527,0.0585,0.0651,0.0561,0.0566,0.0566,0.0798,0.0723,0.0734,0.0686,0.0691,0.0695,0.0719,0,0.0403,0.0442,0.0434,0.0476,0.0492,0.047,0.0503,0.0516,0.0533,0.0599,0.0607,0.0666,0.0586,0.0613,0.0662,0.0679,0.0712,0.0641,0.0751,0.0754,0.0689,0.0759,0.0713,0.0731,0.0737,0.074,0.0742,0,0.0442,0.0467,0.052,0.0561,0.0569,0.0587,0.0648,0.0673,0.0738,0.0762,0.0826,0.0837,0.0905,0.0836,0.0916,0.0876,0.0846,0.0837,0.0839,0.081,0.0717,0.0702,0.0764,0.0661,0.077,0.0768,0.0766,0,0.0485,0.0525,0.0578,0.0588,0.0623,0.065,0.0671,0.0727,0.079,0.0878,0.0957,0.1024,0.1091,0.1101,0.1046,0.1005,0.1131,0.1075,0.0968,0.0958,0.0968,0.0952,0.0967,0.1151,0.1151,0.1151,0.1151,0,0.0531,0.0568,0.0599,0.0624,0.0701,0.0702,0.0803,0.0828,0.0932,0.1056,0.1054,0.1184,0.1175,0.1224,0.1141,0.1116,0.1209,0.1017,0.0998,0.0949,0.0932,0.0882,0.0806,0.1152,0.1152,0.1152,0.1152,0,0.0559,0.0583,0.0641,0.0694,0.0718,0.0767,0.0869,0.0961,0.1026,0.1199,0.1239,0.1349,0.1409,0.1346,0.137,0.1251,0.1145,0.1165,0.1053,0.1021,0.0804,0.0728,0.0763,0.0735,0.107,0.1069,0.1068,0,0.0577,0.0609,0.0688,0.0747,0.0771,0.0849,0.093,0.0999,0.1116,0.131,0.1425,0.1521,0.1626,0.1587,0.1405,0.1255,0.1142,0.1072,0.0996,0.0825,0.0729,0.0684,0.0655,0.0961,0.096,0.0958,0.0957,0,0.0616,0.0643,0.0702,0.082,0.0904,0.1009,0.1124,0.1229,0.1354,0.1511,0.1732,0.1826,0.1765,0.1636,0.1383,0.1256,0.0983,0.1035,0.0945,0.0734,0.0614,0.0564,0.0835,0.0944,0.0946,0.0947,0.0947,0.0948,0.0655,0.0705,0.0797,0.0907,0.102,0.1169,0.1275,0.1436,0.1637,0.1875,0.1945,0.2101,0.1817,0.1497,0.1301,0.0871,0.0912,0.0733,0.0673,0.0658,0.0599,0.0793,0.0829,0.083,0.0831,0.0831,0.0831,0,0.0709,0.0776,0.0887,0.1032,0.1171,0.1211,0.1421,0.1557,0.1812,0.2014,0.2193,0.2102,0.1775,0.1393,0.0799,0.0548,0.0485,0.0425,0.0373,0.0377,0.0632,0.0594,0.0481,0.0481,0.0481,0.0482,0.0482,0.0482,0.0751,0.0857,0.0913,0.1137,0.1246,0.1439,0.1562,0.1771,0.1952,0.2169,0.2227,0.2251,0.1908,0.0958,0.0372,0.0251,0.0132,0.007,0.0056,0.0211,0.0236,0.0259,0.0209,0.0018,0.0017,-0.0164,-0.0166,-0.0168]}],[{"header":{"parameterUnit":"m.s-1","parameterCategory":2,"la1":30.2991,"la2":30.254,"lo1":-89.0895,"lo2":-89.0444,"dy":0.0017,"dx":0.0017,"nx":28,"ny":28,"refTime":"2025-07-12T09:00:00:Z","depth":"2","parameterNumber":2,"parameterNumberName":"U-component_of_CURRENTS"},"data":[0,0,0,0,0,0,0,0,0,0,0,0,0,0,0,0,0,0,0,0,0,0,0,0,0,0,0,0,0,0,0,0,0,0,0,0,0,0,0,0,0,0,0,0,0,0,0,0,0,0,0,0,0,0,0,0,0,0,0.2703,0.2702,0,0.267,0.267,0.267,0.2665,0.2665,0.2665,0.2665,0.2776,0.2779,0.2782,0,0,0,0,0,0,0,0,0,0,0,0,0,0.2713,0.2713,0.2703,0.2702,0.2701,0.267,0.267,0.267,0.2665,0.2665,0.2665,0.2665,0.2775,0.2779,0.2782,0,0,0,0,0,0,0,0,0,0,0,0,0,0.27,0.2713,0.2703,0.2693,0.2691,0.267,0.267,0.267,0.2665,0.2665,0.2665,0.2665,0.2774,0.2778,0.2783,0.2811,0,0,0.2796,0.2798,0,0,0,0,0,0,0,0,0.2701,0.27,0.2695,0.2693,0.2692,0.2668,0.2713,0.2723,0.2665,0.2679,0.2665,0.2665,0.2751,0.2758,0.2754,0.2816,0.2821,0.2797,0.2799,0.2801,0.2803,0,0,0,0,0,0,0,0.2702,0.2701,0.2693,0.2694,0.2692,0.2672,0.2672,0.2715,0.2721,0.2677,0.2676,0.2667,0.2752,0.275,0.2757,0.2822,0.2797,0.2801,0.2803,0.2805,0.3031,0.3034,0,0,0,0,0,0,0.2702,0.2703,0.2694,0.2692,0.2692,0.2672,0.2671,0.2679,0.2717,0.2721,0.2667,0.2667,0.2742,0.2752,0.2761,0.2901,0.2801,0.2806,0.2808,0.3027,0.3031,0.3035,0,0,0,0,0,0,0.2702,0.2702,0.2696,0.2693,0.269,0.2672,0.268,0.2678,0.2713,0.2707,0.2714,0.2708,0.2743,0.2755,0.2833,0.2902,0.2808,0.2812,0.3023,0.3029,0.3033,0.3115,0,0,0,0,0,0,0.2703,0.2703,0.2716,0.2693,0.269,0.2725,0.268,0.2677,0.2703,0.2704,0.2745,0.2752,0.2744,0.2827,0.2838,0.2906,0.2815,0.3019,0.3026,0.3032,0.3108,0.3122,0.3134,0,0,0,0,0,0.2704,0.2671,0.2717,0.2716,0.2707,0.2727,0.2727,0.2713,0.2706,0.2742,0.276,0.2753,0.2875,0.2833,0.2845,0.2916,0.3016,0.3024,0.3031,0.3102,0.3119,0.3134,0,0,0,0,0,0,0.2663,0.2667,0.2717,0.2689,0.2747,0.2726,0.2736,0.2743,0.2782,0.2791,0.2789,0.2799,0.2895,0.29,0.2854,0.3002,0.2948,0.2958,0.2998,0.3014,0.3027,0.3038,0.2819,0,0,0,0,0,0.2673,0.2656,0.2709,0.2695,0.2743,0.2768,0.2775,0.2785,0.2804,0.2821,0.2848,0.2884,0.293,0.2967,0.3005,0.3088,0.3113,0.3145,0.3159,0.3169,0.3189,0.3374,0.3407,0.3059,0.3059,0.3059,0,0,0.2656,0.2648,0.2647,0.2688,0.2736,0.2795,0.2775,0.281,0.2844,0.2831,0.2899,0.2937,0.2963,0.3046,0.3091,0.3063,0.3255,0.3179,0.3187,0.3202,0.3386,0.342,0.345,0.3064,0.3064,0.3063,0,0,0.2631,0.2638,0.2671,0.2732,0.281,0.2807,0.284,0.2891,0.2919,0.3002,0.299,0.3076,0.3148,0.3175,0.3196,0.3315,0.332,0.3333,0.3411,0.3591,0.3622,0.3649,0.3607,0.363,0.3341,0.3341,0.3341,0,0.2648,0.2646,0.2686,0.2767,0.278,0.2831,0.2891,0.2934,0.2992,0.3031,0.3048,0.3191,0.3212,0.3308,0.3339,0.3347,0.3385,0.3341,0.361,0.3639,0.3666,0.3617,0.3642,0.3346,0.3345,0.3345,0.3344,0,0.2688,0.2704,0.2724,0.2826,0.2874,0.2898,0.2988,0.3047,0.3084,0.3135,0.3278,0.3336,0.3425,0.345,0.3428,0.3614,0.3548,0.3605,0.3568,0.3706,0.3643,0.3667,0.3353,0.3351,0.3349,0.3348,0,0,0.2669,0.2738,0.2745,0.2788,0.2881,0.291,0.2999,0.3077,0.3151,0.3275,0.3394,0.3494,0.3566,0.3596,0.3613,0.3758,0.3925,0.3767,0.3775,0.3714,0.4191,0.3903,0.3899,0.4068,0.4076,0.4082,0.4026,0,0.2697,0.2777,0.2786,0.284,0.2906,0.2953,0.3032,0.3131,0.322,0.3363,0.3491,0.3624,0.361,0.3688,0.3836,0.393,0.4016,0.3925,0.4075,0.4075,0.3802,0.3931,0.3654,0.3567,0.4049,0.4053,0.4056,0,0.2782,0.2767,0.2845,0.2852,0.2893,0.2933,0.303,0.3107,0.332,0.3426,0.3607,0.3723,0.3905,0.3926,0.4154,0.411,0.4154,0.4213,0.4215,0.395,0.3839,0.3535,0.3593,0.4097,0.4094,0.4091,0.4088,0,0.2781,0.2806,0.2817,0.2842,0.2906,0.2936,0.2957,0.3147,0.3259,0.3492,0.3644,0.3856,0.4017,0.4179,0.4266,0.4262,0.4506,0.4511,0.4251,0.4221,0.4011,0.3951,0.4697,0.4697,0.4698,0.4698,0.4698,0,0.279,0.2788,0.2819,0.2829,0.2859,0.2934,0.3031,0.312,0.3339,0.3493,0.3688,0.3849,0.4133,0.4287,0.433,0.4327,0.4553,0.4267,0.4243,0.4009,0.3953,0.4463,0.4437,0.4695,0.4696,0.4696,0.4697,0,0.2812,0.2842,0.2853,0.2862,0.2895,0.2931,0.3059,0.3144,0.3347,0.3568,0.3667,0.3937,0.4097,0.4253,0.4477,0.4371,0.4413,0.4345,0.392,0.3847,0.3956,0.3935,0.4039,0.4029,0.4021,0.4015,0.4009,0,0.2808,0.2843,0.2887,0.2916,0.2906,0.2971,0.3046,0.3181,0.3281,0.3572,0.3673,0.3915,0.3995,0.4112,0.4079,0.4038,0.4238,0.3671,0.3623,0.395,0.3917,0.3908,0.3898,0.3321,0.331,0.3301,0.3294,0,0.2768,0.2836,0.2826,0.2902,0.2949,0.2995,0.3077,0.316,0.3325,0.3467,0.3587,0.3661,0.3761,0.3601,0.3555,0.35,0.3654,0.3475,0.4084,0.3504,0.3265,0.3234,0.3251,0.3216,0.3224,0.323,0.3234,0.3237,0.2763,0.2733,0.2798,0.2837,0.2926,0.2981,0.2946,0.3017,0.3106,0.319,0.3334,0.3277,0.3302,0.3062,0.2951,0.2876,0.312,0.297,0.3004,0.3046,0.2948,0.2707,0.2521,0.2525,0.2528,0.2531,0.2533,0,0.2691,0.2684,0.2725,0.2768,0.2803,0.2913,0.2942,0.2854,0.2811,0.2876,0.2867,0.2573,0.2437,0.251,0.2252,0.2149,0.2219,0.2068,0.2183,0.226,0.2329,0.2202,0.1574,0.1571,0.1568,0.1565,0,0,0.2668,0.2636,0.261,0.2629,0.2695,0.2682,0.2647,0.2509,0.2468,0.2301,0.2201,0.2301,0.2391,0.1953,0.1878,0.1697,0.198,0.1622,0.2396,0.2613,0.2678,0.2846,0.2734,0,0,0,0,0]},{"header":{"parameterUnit":"m.s-1","parameterCategory":2,"la1":30.2991,"la2":30.254,"lo1":-89.0895,"lo2":-89.0444,"dy":0.0017,"dx":0.0017,"nx":28,"ny":28,"refTime":"2025-07-12T09:00:00:Z","depth":"2","parameterNumber":3,"parameterNumberName":"V-component_of_CURRENTS"},"data":[0,0,0,0,0,0,0,0,0,0,0,0,0,0,0,0,0,0,0,0,0,0,0,0,0,0,0,0,0,0,0,0,0,0,0,0,0,0,0,0,0,0,0,0,0,0,0,0,0,0,0,0,0,0,0,0,0,0,0.004,0.004,0,0.0,-0.0001,-0.0001,-0.0041,-0.0042,-0.0042,-0.0042,-0.0062,-0.0062,-0.0062,0,0,0,0,0,0,0,0,0,0,0,0,0,0.007,0.0069,0.004,0.004,0.0039,0.0,-0.0001,-0.0001,-0.0041,-0.0042,-0.0042,-0.0043,-0.0062,-0.0062,-0.0062,0,0,0,0,0,0,0,0,0,0,0,0,0,0.0044,0.0069,0.004,0.0016,0.0014,0.0,-0.0001,-0.0001,-0.0041,-0.0042,-0.0042,-0.0043,-0.0062,-0.0062,-0.0062,-0.0053,0,0,-0.0063,-0.0063,0,0,0,0,0,0,0,0,0.0046,0.0043,0.002,0.0018,0.0015,-0.0015,0.0003,-0.0017,-0.0041,-0.0022,-0.0042,-0.0043,-0.0043,-0.0044,-0.0054,-0.0054,-0.0055,-0.0063,-0.0063,-0.0063,-0.0063,0,0,0,0,0,0,0,0.0048,0.0044,0.0022,0.002,0.0017,0.0003,-0.0001,-0.0001,-0.003,-0.0024,-0.0027,-0.0028,-0.0044,-0.0053,-0.0054,-0.0055,-0.0063,-0.0063,-0.0064,-0.0064,-0.0066,-0.0066,0,0,0,0,0,0,0.0057,0.0046,0.0024,0.0021,0.0031,0.0003,-0.0002,-0.0006,-0.003,-0.0034,-0.0027,-0.003,-0.0053,-0.0054,-0.0055,-0.0068,-0.0063,-0.0064,-0.0064,-0.0066,-0.0066,-0.0066,0,0,0,0,0,0,0.0058,0.0056,0.0025,0.0034,0.003,0.0004,-0.0001,-0.0007,-0.0018,-0.0033,-0.0037,-0.0033,-0.0053,-0.0055,-0.0074,-0.0068,-0.0064,-0.0064,-0.0066,-0.0066,-0.0066,-0.0079,0,0,0,0,0,0,0.0059,0.0056,0.0055,0.0035,0.003,0.002,-0.0001,-0.0007,-0.0016,-0.002,-0.0038,-0.0041,-0.0054,-0.0074,-0.0074,-0.0068,-0.0064,-0.0066,-0.0066,-0.0066,-0.0078,-0.0079,-0.008,0,0,0,0,0,0.006,0.0068,0.0055,0.0053,0.0029,0.002,0.0016,-0.0006,-0.0016,-0.0018,-0.0045,-0.0041,-0.0072,-0.0074,-0.0075,-0.0069,-0.0066,-0.0066,-0.0066,-0.0078,-0.0079,-0.008,0,0,0,0,0,0,0.0081,0.0064,0.005,0.0051,0.0036,0.0014,0.0008,-0.0002,-0.0025,-0.0033,-0.0048,-0.0053,-0.0064,-0.0064,-0.0066,-0.0067,-0.0064,-0.0063,-0.0073,-0.0074,-0.0074,-0.0058,-0.0064,0,0,0,0,0,0.0085,0.0087,0.0064,0.0067,0.0054,0.0031,0.0024,0.001,-0.0011,-0.0022,-0.0033,-0.0047,-0.0062,-0.0067,-0.0076,-0.0079,-0.0046,-0.0072,-0.0072,-0.0073,-0.0059,0.0015,0.0023,-0.0065,-0.0065,-0.0065,0,0,0.0094,0.0087,0.0086,0.0071,0.0052,0.0061,0.0024,0.0013,0.0023,-0.0018,-0.0016,-0.0049,-0.0063,-0.0076,-0.0079,-0.0077,-0.0039,-0.0073,-0.0073,-0.0059,0.0016,0.0025,0.0032,-0.0065,-0.0065,-0.0065,0,0,0.0117,0.0101,0.0105,0.0096,0.0075,0.0075,0.0076,0.0051,0.0033,0.0023,-0.0006,-0.004,-0.0048,-0.0068,-0.0077,-0.0079,-0.0044,-0.0078,-0.0068,0.0002,0.0011,0.0019,0.0039,0.0049,-0.0078,-0.0078,-0.0078,0,0.0125,0.0149,0.0106,0.0108,0.0125,0.009,0.0115,0.0092,0.0068,0.006,0.0028,-0.0013,-0.0039,-0.0053,-0.0073,-0.0079,-0.0044,-0.0069,0.0004,0.0012,0.0021,0.0041,0.0052,-0.0079,-0.0078,-0.0078,-0.0078,0,0.0153,0.0176,0.0179,0.0188,0.0183,0.0209,0.0176,0.0171,0.0151,0.0126,0.009,0.0026,0.0003,-0.0019,-0.0056,-0.0024,-0.0023,-0.0005,0.0008,0.0029,0.0047,0.0059,-0.0079,-0.0079,-0.0079,-0.0079,0,0,0.0181,0.0204,0.0209,0.0243,0.0243,0.0252,0.0258,0.0267,0.0277,0.0208,0.0224,0.0127,0.0064,0.005,-0.0008,0.0022,0.0072,0.0025,0.0029,0.0049,0.0206,0.0109,0.0112,0.0116,0.0119,0.0121,0.0183,0,0.0236,0.0288,0.0286,0.0363,0.0393,0.0378,0.0384,0.0363,0.0344,0.0343,0.0244,0.0223,0.0099,0.0076,0.0075,0.0107,0.0109,0.0052,0.018,0.0183,0.0099,0.0126,0.014,0.019,0.0195,0.0197,0.0198,0,0.0272,0.032,0.0388,0.0463,0.0469,0.05,0.0535,0.0533,0.0494,0.0466,0.0401,0.0337,0.0306,0.0225,0.0241,0.0218,0.0195,0.0201,0.0205,0.0134,0.011,0.0176,0.0212,0.0219,0.0217,0.0216,0.0214,0,0.032,0.0405,0.0481,0.0501,0.0546,0.0571,0.0597,0.056,0.0581,0.0548,0.0579,0.0492,0.0503,0.0464,0.0391,0.0351,0.0453,0.0413,0.0284,0.0276,0.0323,0.0313,0.0432,0.0432,0.0432,0.0431,0.0431,0,0.0397,0.0464,0.0509,0.055,0.0637,0.0613,0.0682,0.0678,0.0689,0.0757,0.063,0.0693,0.058,0.0589,0.0486,0.0421,0.0522,0.0293,0.0299,0.031,0.0299,0.0358,0.0349,0.0434,0.0433,0.0433,0.0432,0,0.0428,0.0464,0.056,0.0631,0.0655,0.0697,0.0779,0.0833,0.0813,0.092,0.0926,0.0912,0.0919,0.0771,0.0758,0.0575,0.0512,0.0452,0.0428,0.0426,0.0253,0.0243,0.0323,0.0321,0.0319,0.0317,0.0315,0,0.0458,0.0495,0.0605,0.0678,0.0725,0.0793,0.0853,0.0879,0.0978,0.1075,0.1177,0.1179,0.1183,0.1048,0.08,0.0582,0.0548,0.0398,0.0288,0.0251,0.0249,0.0242,0.0234,0.0344,0.0343,0.0342,0.0341,0,0.052,0.0538,0.0626,0.0755,0.0857,0.0974,0.1093,0.1196,0.1263,0.1355,0.1506,0.1503,0.1338,0.1118,0.0762,0.0608,0.0418,0.0363,0.0431,0.0334,0.0267,0.0265,0.0259,0.0333,0.0333,0.0334,0.0335,0.0335,0.0566,0.0638,0.0736,0.087,0.0984,0.1149,0.1265,0.1418,0.1569,0.1689,0.1722,0.1673,0.1413,0.0933,0.0683,0.0377,0.0377,0.022,0.0227,0.0234,0.019,0.012,0.0148,0.0147,0.0147,0.0147,0.0147,0,0.0647,0.0725,0.0855,0.1023,0.1159,0.1198,0.1424,0.1529,0.1725,0.1784,0.1825,0.1523,0.1261,0.0967,0.05,0.0202,0.021,0.0112,0.019,0.0199,0.0208,0.0164,0.0115,0.0114,0.0113,0.0113,0,0,0.0697,0.0835,0.0908,0.1134,0.1247,0.1418,0.155,0.1687,0.1762,0.1783,0.1713,0.1626,0.1294,0.0941,0.0606,0.0356,0.0335,0.0303,0.0355,0.0495,0.0507,0.0292,0.0237,0,0,0,0,0]}],[{"header":{"parameterUnit":"m.s-1","parameterCategory":2,"la1":30.2991,"la2":30.254,"lo1":-89.0895,"lo2":-89.0444,"dy":0.0017,"dx":0.0017,"nx":28,"ny":28,"refTime":"2025-07-12T09:00:00:Z","depth":"4","parameterNumber":2,"parameterNumberName":"U-component_of_CURRENTS"},"data":[0,0,0,0,0,0,0,0,0,0,0,0,0,0,0,0,0,0,0,0,0,0,0,0,0,0,0,0,0,0,0,0,0,0,0,0,0,0,0,0,0,0,0,0,0,0,0,0,0,0,0,0,0,0,0,0,0,0,0.1198,0.1198,0,0.1134,0.1133,0.1131,0.1156,0.1158,0.116,0.1163,0.102,0.1015,0.1009,0,0,0,0,0,0,0,0,0,0,0,0,0,0.1199,0.1199,0.1198,0.1198,0.1198,0.1134,0.1133,0.1131,0.1155,0.1158,0.1161,0.1164,0.1022,0.1015,0.1008,0,0,0,0,0,0,0,0,0,0,0,0,0,0.1164,0.1198,0.1198,0.121,0.1211,0.1135,0.1133,0.113,0.1155,0.1158,0.1162,0.1165,0.1025,0.1016,0.1007,0.0882,0,0,0.098,0.0976,0,0,0,0,0,0,0,0,0.1166,0.1163,0.1208,0.1209,0.121,0.1165,0.1081,0.1047,0.1154,0.1166,0.1163,0.1167,0.1065,0.1053,0.1021,0.0875,0.0869,0.0979,0.0974,0.097,0.0967,0,0,0,0,0,0,0,0.1169,0.1165,0.1164,0.1208,0.1209,0.117,0.1169,0.1074,0.1088,0.1165,0.1169,0.1176,0.1064,0.1029,0.1018,0.0867,0.0979,0.0971,0.0966,0.0962,0.0854,0.0857,0,0,0,0,0,0,0.1199,0.1168,0.1166,0.1163,0.1207,0.1168,0.1167,0.1168,0.1091,0.1086,0.1173,0.1178,0.1043,0.1028,0.1013,0.1053,0.097,0.0962,0.0956,0.0852,0.0855,0.0857,0,0,0,0,0,0,0.1199,0.1199,0.1169,0.1172,0.1166,0.1167,0.1166,0.1165,0.1184,0.1099,0.1092,0.1202,0.1045,0.1025,0.1039,0.104,0.0958,0.0949,0.0849,0.0853,0.0856,0.1008,0,0,0,0,0,0,0.1199,0.1199,0.1212,0.1174,0.1168,0.1155,0.1164,0.1162,0.1184,0.119,0.1119,0.1107,0.1046,0.1054,0.1031,0.1027,0.0942,0.0846,0.085,0.0855,0.1,0.1016,0.1031,0,0,0,0,0,0.1199,0.1176,0.1213,0.1214,0.1185,0.1156,0.1148,0.1153,0.1183,0.1183,0.12,0.1112,0.1066,0.105,0.1021,0.1014,0.0843,0.0849,0.0855,0.0993,0.1013,0.103,0,0,0,0,0,0,0.1168,0.1176,0.1216,0.1198,0.1208,0.1165,0.1141,0.1175,0.1179,0.1195,0.1144,0.1132,0.1139,0.1067,0.1052,0.1004,0.0936,0.0936,0.1051,0.1068,0.1084,0.1031,0.0935,0,0,0,0,0,0.1176,0.1163,0.1187,0.117,0.1172,0.1175,0.1168,0.119,0.1188,0.1194,0.1158,0.1132,0.1121,0.1101,0.1052,0.1015,0.0995,0.0996,0.1011,0.1024,0.0968,0.1032,0.1049,0.0876,0.0876,0.0876,0,0,0.1155,0.1159,0.1153,0.1165,0.1151,0.1149,0.1175,0.1169,0.1186,0.1169,0.1163,0.1173,0.1131,0.1121,0.1112,0.1071,0.1075,0.1031,0.1043,0.0977,0.104,0.1057,0.1071,0.088,0.0879,0.0878,0,0,0.1064,0.1113,0.1066,0.1095,0.1116,0.113,0.1154,0.1154,0.1174,0.1205,0.1213,0.1265,0.1193,0.1192,0.118,0.1244,0.1163,0.1213,0.1228,0.1296,0.131,0.1321,0.137,0.1384,0.1212,0.1213,0.1213,0,0.1064,0.1032,0.1049,0.1031,0.1072,0.1136,0.1141,0.1146,0.1167,0.1194,0.1225,0.1248,0.1226,0.1251,0.1282,0.1272,0.1285,0.1167,0.1316,0.1327,0.1336,0.1382,0.1396,0.1221,0.122,0.1219,0.1218,0,0.0956,0.0965,0.0935,0.0963,0.0988,0.1013,0.1064,0.1094,0.1164,0.12,0.1268,0.1297,0.1326,0.1331,0.1316,0.1362,0.1346,0.1343,0.1269,0.1363,0.1406,0.1418,0.1232,0.1229,0.1227,0.1225,0,0,0.0923,0.0882,0.089,0.0919,0.0998,0.101,0.1038,0.1105,0.1156,0.1213,0.1298,0.132,0.138,0.137,0.1388,0.1416,0.1537,0.1392,0.1392,0.1437,0.1672,0.1533,0.1532,0.1568,0.157,0.1571,0.1694,0,0.0882,0.0827,0.0843,0.087,0.0875,0.0982,0.1012,0.1083,0.1162,0.1247,0.1331,0.1414,0.1383,0.1457,0.1483,0.1524,0.1564,0.1501,0.157,0.157,0.1434,0.1539,0.1577,0.1703,0.1705,0.1707,0.1709,0,0.082,0.0805,0.0789,0.0863,0.0883,0.0927,0.1059,0.111,0.1226,0.1292,0.1393,0.1467,0.1553,0.1543,0.1627,0.1589,0.1618,0.1636,0.1644,0.144,0.145,0.1575,0.173,0.1728,0.1726,0.1725,0.1724,0,0.0794,0.0805,0.0803,0.0839,0.0901,0.0949,0.1036,0.1132,0.1194,0.136,0.1438,0.1547,0.1652,0.1695,0.1732,0.1705,0.1813,0.1813,0.1707,0.17,0.172,0.1704,0.1863,0.1862,0.1862,0.1862,0.1861,0,0.0782,0.0798,0.08,0.0815,0.0869,0.0955,0.1057,0.1126,0.1274,0.1375,0.1487,0.1581,0.1689,0.1767,0.178,0.177,0.1878,0.1693,0.1716,0.1789,0.178,0.1731,0.1715,0.1866,0.1865,0.1864,0.1864,0,0.0742,0.0739,0.0746,0.0809,0.0835,0.0899,0.1059,0.1135,0.1272,0.1418,0.1493,0.164,0.1746,0.1803,0.1903,0.1828,0.185,0.1819,0.1892,0.192,0.1682,0.1672,0.1726,0.1722,0.1719,0.1716,0.1714,0,0.0704,0.068,0.0719,0.0729,0.0766,0.0876,0.0945,0.111,0.12,0.1441,0.1505,0.1666,0.1752,0.1784,0.1836,0.186,0.1817,0.1811,0.1708,0.1647,0.1667,0.1662,0.1656,0.1708,0.1707,0.1706,0.1706,0,0.0633,0.0643,0.0667,0.0675,0.0732,0.0802,0.0933,0.0983,0.1215,0.1336,0.1506,0.1588,0.1686,0.1742,0.1751,0.1762,0.1806,0.1774,0.178,0.1684,0.1627,0.1647,0.1646,0.1694,0.1695,0.1696,0.1697,0,0.0597,0.0611,0.0621,0.0654,0.0694,0.0733,0.0807,0.0953,0.1068,0.1333,0.1401,0.1574,0.1718,0.1694,0.1723,0.1698,0.1656,0.1577,0.1593,0.1606,0.1494,0.1399,0.141,0,0,0,0,0,0.0552,0.0574,0.0592,0.0612,0.0646,0.0674,0.0798,0.0893,0.1102,0.119,0.1299,0.1411,0.1486,0.1559,0.1503,0.1601,0.1615,0.1521,0.1522,0.1628,0.1642,0.1512,0,0,0,0,0,0,0.0533,0.0539,0.0585,0.0569,0.0578,0.062,0.0701,0.0827,0.089,0.1101,0.1152,0.1299,0.1377,0.1511,0.1475,0.1485,0.1447,0.1612,0.1607,0.162,0.1633,0.1644,0.1515,0,0,0,0,0]},{"header":{"parameterUnit":"m.s-1","parameterCategory":2,"la1":30.2991,"la2":30.254,"lo1":-89.0895,"lo2":-89.0444,"dy":0.0017,"dx":0.0017,"nx":28,"ny":28,"refTime":"2025-07-12T09:00:00:Z","depth":"4","parameterNumber":3,"parameterNumberName":"V-component_of_CURRENTS"},"data":[0,0,0,0,0,0,0,0,0,0,0,0,0,0,0,0,0,0,0,0,0,0,0,0,0,0,0,0,0,0,0,0,0,0,0,0,0,0,0,0,0,0,0,0,0,0,0,0,0,0,0,0,0,0,0,0,0,0,0.014,0.014,0,0.0162,0.0162,0.0163,0.0123,0.0122,0.012,0.0119,0.0103,0.0104,0.0105,0,0,0,0,0,0,0,0,0,0,0,0,0,0.0123,0.0124,0.014,0.014,0.014,0.0162,0.0162,0.0163,0.0124,0.0122,0.012,0.0118,0.0103,0.0104,0.0105,0,0,0,0,0,0,0,0,0,0,0,0,0,0.0139,0.0124,0.014,0.0122,0.012,0.0162,0.0162,0.0163,0.0124,0.0122,0.012,0.0117,0.0102,0.0104,0.0105,0.0161,0,0,0.011,0.0111,0,0,0,0,0,0,0,0,0.0138,0.014,0.0124,0.0123,0.0121,0.0136,0.015,0.016,0.0125,0.0125,0.0119,0.0116,0.0111,0.0111,0.0124,0.016,0.0159,0.011,0.0111,0.0112,0.0112,0,0,0,0,0,0,0,0.0137,0.0139,0.0151,0.0125,0.0123,0.0132,0.0131,0.0153,0.0132,0.0125,0.0121,0.0121,0.0109,0.0123,0.0124,0.0159,0.011,0.0111,0.0112,0.0113,0.0181,0.0182,0,0,0,0,0,0,0.0129,0.0138,0.015,0.0152,0.0121,0.0134,0.0133,0.0135,0.0132,0.0129,0.0123,0.0119,0.0122,0.0122,0.0123,0.0149,0.0112,0.0113,0.0114,0.018,0.0181,0.0182,0,0,0,0,0,0,0.0129,0.013,0.015,0.0143,0.0146,0.0136,0.0139,0.0137,0.0142,0.0131,0.0127,0.0129,0.012,0.0121,0.0127,0.0149,0.0114,0.0115,0.0179,0.0181,0.0182,0.0226,0,0,0,0,0,0,0.0128,0.013,0.0134,0.0143,0.0146,0.0176,0.0141,0.0139,0.0145,0.014,0.0135,0.0131,0.0118,0.0125,0.0129,0.015,0.0116,0.0178,0.018,0.0181,0.0223,0.0229,0.0233,0,0,0,0,0,0.0128,0.0153,0.0134,0.0136,0.015,0.0177,0.018,0.0167,0.0147,0.0162,0.0144,0.0131,0.0138,0.0127,0.0131,0.0154,0.0177,0.0179,0.0181,0.0221,0.0228,0.0233,0,0,0,0,0,0,0.0149,0.0151,0.0131,0.0153,0.0159,0.0169,0.019,0.0175,0.0177,0.0169,0.0147,0.0144,0.0153,0.0154,0.0142,0.0178,0.0155,0.0158,0.0184,0.019,0.0195,0.0205,0.0117,0,0,0,0,0,0.0155,0.0175,0.0168,0.0189,0.0195,0.0192,0.0201,0.019,0.0191,0.019,0.0184,0.0177,0.0172,0.0178,0.0177,0.0211,0.017,0.0226,0.0231,0.0235,0.0246,0.0171,0.017,0.0189,0.0189,0.0189,0,0,0.017,0.0174,0.0184,0.0196,0.0204,0.0231,0.0194,0.0216,0.0231,0.019,0.0218,0.0195,0.0181,0.0201,0.0207,0.0202,0.0213,0.0238,0.0241,0.025,0.0173,0.0171,0.0169,0.019,0.019,0.019,0,0,0.0222,0.0215,0.0248,0.0261,0.027,0.0269,0.0274,0.0282,0.0275,0.0301,0.0257,0.0244,0.0269,0.0247,0.0241,0.028,0.0233,0.0285,0.033,0.0257,0.0255,0.0252,0.0211,0.0204,0.0296,0.0297,0.0297,0,0.0231,0.0271,0.0263,0.03,0.0315,0.0287,0.0322,0.0327,0.0331,0.0323,0.0316,0.0306,0.0292,0.0285,0.0295,0.0292,0.0247,0.0307,0.0261,0.0257,0.0254,0.0213,0.0204,0.0299,0.0299,0.0298,0.0298,0,0.0301,0.0337,0.0367,0.0396,0.041,0.0444,0.0434,0.0438,0.0427,0.0417,0.0409,0.0386,0.0375,0.0368,0.0351,0.0323,0.03,0.0264,0.0242,0.0254,0.0211,0.0201,0.0302,0.0301,0.0301,0.03,0,0,0.0306,0.0395,0.0403,0.0434,0.046,0.0478,0.05,0.05,0.0498,0.0499,0.0497,0.0486,0.0455,0.0446,0.0409,0.0358,0.0298,0.0311,0.0306,0.0266,0.0151,0.0156,0.0146,0.0239,0.0238,0.0236,0.0136,0,0.0356,0.045,0.0472,0.0548,0.0593,0.0575,0.0598,0.0588,0.0571,0.0563,0.0521,0.0518,0.0491,0.0482,0.0426,0.0318,0.0273,0.033,0.0152,0.0148,0.0144,0.0135,0.0231,0.0128,0.0126,0.0125,0.0123,0,0.0405,0.0465,0.056,0.0622,0.0634,0.0673,0.0671,0.069,0.0659,0.0644,0.0619,0.0577,0.0527,0.0495,0.0339,0.0371,0.0279,0.0197,0.019,0.0174,0.0135,0.0111,0.0105,0.0107,0.0108,0.0109,0.011,0,0.0414,0.0514,0.0593,0.0623,0.0691,0.0714,0.0736,0.0719,0.0724,0.0701,0.0688,0.0615,0.058,0.0451,0.0311,0.0311,0.0121,0.0095,0.0019,0.0019,0.0023,0.0027,-0.0017,-0.0017,-0.0017,-0.0016,-0.0016,0,0.0456,0.0513,0.0615,0.0664,0.073,0.0762,0.0813,0.0801,0.0798,0.0807,0.0745,0.0719,0.0559,0.0437,0.031,0.0142,0.012,0.0029,-0.0013,0.0048,0.0056,0.0017,0.0022,-0.002,-0.0019,-0.0019,-0.0018,0,0.046,0.0533,0.0624,0.0719,0.0752,0.08,0.0875,0.0898,0.0889,0.0892,0.0891,0.0777,0.0625,0.0458,0.0239,0.0145,-0.0018,-0.007,0.0031,-0.0004,-0.0067,-0.0058,-0.0163,-0.0164,-0.0165,-0.0165,-0.0166,0,0.0475,0.0538,0.0661,0.0714,0.077,0.086,0.0914,0.0946,0.0963,0.0929,0.0917,0.0786,0.0699,0.04,0.0225,-0.0016,-0.0049,-0.0121,-0.0105,-0.0055,-0.0085,-0.0075,-0.0066,-0.0167,-0.0167,-0.0167,-0.0167,0,0.0499,0.0548,0.062,0.0734,0.0819,0.0911,0.0988,0.0998,0.1027,0.1017,0.0934,0.0798,0.062,0.0404,0.0213,0.0043,-0.007,-0.0128,-0.0128,-0.0114,-0.006,-0.0088,-0.0078,-0.017,-0.0169,-0.0169,-0.0169,0,0.0507,0.055,0.0651,0.0743,0.0846,0.0927,0.0975,0.1007,0.1028,0.0983,0.0961,0.0789,0.0692,0.0433,0.026,0.009,0.0048,0.0003,-0.0004,-0.0004,0.0073,0.0166,0.0091,0,0,0,0,0,0.0516,0.0566,0.0649,0.0756,0.0853,0.092,0.1002,0.104,0.1065,0.1011,0.0986,0.0833,0.0579,0.0464,0.0291,0.0236,0.0011,0.003,-0.0047,-0.0182,-0.018,-0.0116,0,0,0,0,0,0,0.0518,0.0599,0.0641,0.0751,0.0823,0.0938,0.0998,0.1019,0.0984,0.0977,0.0836,0.0797,0.0536,0.0673,0.0288,0.0238,0.0168,-0.0084,-0.0087,-0.0184,-0.0181,-0.0179,-0.0113,0,0,0,0,0]}]]